Regional Weather Roundup
Issued by NWS

Home | Current Version | Previous Version | Graphics & Text | Print | Product List | Glossary On
Versions: 1 2 3 4 5 6 7 8 9 10 11 12 13 14 15 16 17 18 19 20 21 22 23 24 25 26 27 28 29 30 31 32 33 34 35 36 37 38 39 40 41 42 43 44 45 46 47 48 49 50
000
ASUS43 KLMK 180510
RWRKY
KENTUCKY REGIONAL WEATHER ROUNDUP
NATIONAL WEATHER SERVICE LOUISVILLE KY
100 AM EDT FRI AUG 18 2017

NOTE "FAIR" INDICATES FEW OR NO CLOUDS BELOW 12,000 FEET
WITH NO SIGNIFICANT WEATHER AND/OR OBSTRUCTIONS TO VISIBILITY.

KYZ001>023-026-027-061>063-070>075-180600-
WESTERN AND SOUTH CENTRAL KENTUCKY

CITY           SKY/WX    TMP DP  RH WIND       PRES   REMARKS
PADUCAH        CLEAR     74  70  87 SW6       29.91S
HENDERSON      PTCLDY    75  72  90 SW7       29.89F
OWENSBORO      CLEAR     73  71  93 SW5       29.89F
HOPKINSVILLE   CLOUDY    76  76 100 SW8       29.92S
BOWLING GREEN  MOCLDY    78  76  93 SW8       29.91F
GLASGOW        LGT RAIN  75  75 100 CALM      29.92F
$$

KYZ024-025-028>034-038-045-046-053-180600-
NORTH CENTRAL KENTUCKY

CITY           SKY/WX    TMP DP  RH WIND       PRES   REMARKS
LOUISVILLE/SDF MOCLDY    76  73  91 SW5       29.87F
LOUISVILLE/LOU PTCLDY    74  74 100 S5        29.88F
FORT KNOX      CLOUDY    73  73 100 SW6       29.88F
$$

KYZ035>037-039>044-047>052-055>060-089>105-180600-
NORTHEAST KENTUCKY

CITY           SKY/WX    TMP DP  RH WIND       PRES   REMARKS
LEXINGTON      LGT RAIN  73  71  93 SW8       29.92F FOG
COVINGTON      CLOUDY    74  74 100 SW8       29.88F
FRANKFORT      CLOUDY    74  71  91 S6        29.89F
$$

KYZ054-064>069-076>088-106>120-180600-
SOUTHEAST KENTUCKY

CITY           SKY/WX    TMP DP  RH WIND       PRES   REMARKS
JACKSON        PTCLDY    76  72  87 CALM      29.96F
LONDON         CLOUDY    77  69  76 SW5       29.96F
SOMERSET       CLOUDY    73  70  88 CALM      29.95F
MIDDLESBORO    CLEAR     72  72 100 CALM      29.98F
MONTICELLO     PTCLDY    76  72  87 VRB7      29.95F
$$





USA.gov is the U.S. government's official web portal to all federal, state and local government web resources and services.